Date String (YYYY-MM-DD hh:mm:ss) UTC,Instrument flags,Ambient pressure (hPa),Sample flow (lpm),Bypass flow (lpm),Sample temperature (°C),Ambient temperature (°C),ASC tube jacket temperature (°C),LED temperature (°C),Box temperature (°C),Sample RH (%),Span deviation,Mass concentration (μg/m³),Mass concentration (μg/m³),Mass concentration (μg/m³)
DateTimeUTC,F1_M11,P_M11,Q1_M11,Q2_M11,T1_M11,T2_M11,T3_M11,T4_M11,T5_M11,U1_M11,ZSPAN_M11,X2_M11,X0_M11,X1_M11
2022-07-17 09:00:00,,0830.7,5.01,0.00,29.9,28.8,00.0,38.6,31.8,29.2,0000.0,0006.13,0012.55,0005.12
2022-07-17 09:01:00,,0830.7,5.00,0.00,29.9,28.2,00.0,38.5,31.8,29.0,0000.0,0006.19,0013.47,0005.14
2022-07-17 09:02:00,,0830.7,5.00,0.00,29.8,27.6,00.0,38.4,31.7,29.7,0000.0,0006.22,0013.63,0005.15
2022-07-17 09:03:00,,0830.6,5.01,0.00,29.8,27.4,00.0,38.5,31.6,29.7,0000.0,0006.25,0013.68,0005.14
2022-07-17 09:04:00,,0830.6,4.99,0.00,29.7,27.4,00.0,38.4,31.5,29.5,0000.0,0006.27,0013.94,0005.13
2022-07-17 09:05:00,,0830.6,4.99,0.00,29.7,27.5,00.0,38.4,31.4,28.6,0000.0,0006.29,0013.83,0005.14
2022-07-17 09:06:00,,0830.6,5.00,0.00,29.6,27.7,00.0,38.4,31.4,27.3,0000.0,0006.27,0013.28,0005.15
2022-07-17 09:07:00,,0830.6,5.00,0.00,29.6,27.8,00.0,38.4,31.4,27.3,0000.0,0006.26,0013.85,0005.16
2022-07-17 09:08:00,,0830.6,4.99,0.00,29.6,27.9,00.0,38.4,31.5,27.8,0000.0,0006.26,0013.68,0005.19
2022-07-17 09:09:00,,0830.6,5.01,0.00,29.6,28.1,00.0,38.4,31.5,27.9,0000.0,0006.30,0013.76,0005.22
2022-07-17 09:10:00,,0830.6,4.99,0.00,29.6,28.2,00.0,38.4,31.5,28.0,0000.0,0006.30,0013.79,0005.24
2022-07-17 09:11:00,,0830.6,5.01,0.00,29.7,28.3,00.0,38.4,31.5,28.2,0000.0,0006.29,0014.18,0005.25
2022-07-17 09:12:00,,0830.6,5.00,0.00,29.7,28.4,00.0,38.4,31.6,28.3,0000.0,0006.31,0013.60,0005.27
2022-07-17 09:13:00,,0830.6,5.01,0.00,29.7,28.4,00.0,38.4,31.6,27.6,0000.0,0006.30,0014.20,0005.28
2022-07-17 09:14:00,,0830.6,5.00,0.00,29.7,28.5,00.0,38.5,31.6,27.0,0000.0,0006.30,0014.24,0005.31
2022-07-17 09:15:00,,0830.6,5.00,0.00,29.7,28.6,00.0,38.5,31.7,26.1,0000.0,0006.28,0014.03,0005.34
2022-07-17 09:16:00,,0830.6,5.00,0.00,29.7,28.6,00.0,38.5,31.7,25.6,0000.0,0006.28,0013.98,0005.37
2022-07-17 09:17:00,,0830.6,5.00,0.00,29.8,28.7,00.0,38.5,31.7,25.6,0000.0,0006.27,0013.77,0005.39
2022-07-17 09:18:00,,0830.5,5.01,0.00,29.8,28.7,00.0,38.5,31.7,25.4,0000.0,0006.28,0013.76,0005.41
2022-07-17 09:19:00,,0830.6,4.99,0.00,29.8,28.8,00.0,38.5,31.7,25.4,0000.0,0006.28,0014.27,0005.43
2022-07-17 09:20:00,,0830.5,5.00,0.00,29.8,28.8,00.0,38.6,31.8,25.2,0000.0,0006.31,0014.45,0005.44
2022-07-17 09:21:00,,0830.5,5.01,0.00,29.9,28.4,00.0,38.5,31.8,25.2,0000.0,0006.30,0014.06,0005.46
2022-07-17 09:22:00,,0830.5,5.01,0.00,29.8,27.6,00.0,38.5,31.7,25.4,0000.0,0006.30,0013.41,0005.47
2022-07-17 09:23:00,,0830.5,5.01,0.00,29.8,27.3,00.0,38.4,31.6,25.3,0000.0,0006.26,0013.10,0005.49
2022-07-17 09:24:00,,0830.5,4.99,0.00,29.7,27.3,00.0,38.4,31.4,25.4,0000.0,0006.29,0012.55,0005.52
2022-07-17 09:25:00,,0830.5,5.00,0.00,29.7,27.4,00.0,38.4,31.4,25.5,0000.0,0006.28,0012.72,0005.52
2022-07-17 09:26:00,,0830.6,5.00,0.00,29.6,27.6,00.0,38.4,31.4,25.5,0000.0,0006.28,0012.64,0005.52
2022-07-17 09:27:00,,0830.5,5.00,0.00,29.6,27.7,00.0,38.4,31.4,25.4,0000.0,0006.26,0012.59,0005.52
2022-07-17 09:28:00,,0830.5,5.01,0.00,29.6,27.8,00.0,38.4,31.4,25.4,0000.0,0006.26,0012.59,0005.52
2022-07-17 09:29:00,,0830.5,5.00,0.00,29.6,28.0,00.0,38.4,31.4,25.4,0000.0,0006.24,0012.09,0005.53
2022-07-17 09:30:00,,0830.5,5.00,0.00,29.6,28.1,00.0,38.4,31.5,25.4,0000.0,0006.23,0011.04,0005.53
2022-07-17 09:31:00,,0830.5,5.01,0.00,29.6,28.2,00.0,38.4,31.5,25.4,0000.0,0006.23,0010.59,0005.54
2022-07-17 09:32:00,,0830.6,5.00,0.00,29.6,28.3,00.0,38.4,31.5,25.3,0000.0,0006.25,0010.66,0005.53
2022-07-17 09:33:00,,0830.5,5.01,0.00,29.6,28.4,00.0,38.4,31.6,25.3,0000.0,0006.30,0010.85,0005.54
2022-07-17 09:34:00,,0830.5,5.00,0.00,29.7,28.4,00.0,38.4,31.6,25.2,0000.0,0006.31,0010.81,0005.53
2022-07-17 09:35:00,,0830.5,5.00,0.00,29.7,28.5,00.0,38.5,31.6,25.2,0000.0,0006.30,0010.51,0005.54
2022-07-17 09:36:00,,0830.5,5.01,0.00,29.7,28.5,00.0,38.5,31.7,25.1,0000.0,0006.30,0009.85,0005.55
2022-07-17 09:37:00,,0830.5,5.00,0.00,29.7,28.6,00.0,38.5,31.7,25.0,0000.0,0006.30,0009.88,0005.55
2022-07-17 09:38:00,,0830.5,4.99,0.00,29.8,28.6,00.0,38.5,31.7,25.0,0000.0,0006.35,0010.63,0005.56
2022-07-17 09:39:00,,0830.4,5.00,0.00,29.8,28.7,00.0,38.5,31.7,24.9,0000.0,0006.38,0010.71,0005.58
2022-07-17 09:40:00,,0830.4,4.99,0.00,29.8,28.7,00.0,38.5,31.8,24.9,0000.0,0006.42,0010.78,0005.60
2022-07-17 09:41:00,,0830.4,4.99,0.00,29.8,28.8,00.0,38.5,31.8,24.8,0000.0,0006.44,0010.88,0005.62
2022-07-17 09:42:00,,0830.4,5.00,0.00,29.8,28.8,00.0,38.6,31.8,24.9,0000.0,0006.46,0010.98,0005.63
2022-07-17 09:43:00,,0830.4,4.99,0.00,29.9,28.8,00.0,38.6,31.8,24.9,0000.0,0006.49,0011.05,0005.65
2022-07-17 09:44:00,,0830.4,5.00,0.00,29.9,28.9,00.0,38.6,31.9,24.9,0000.0,0006.50,0011.38,0005.69
2022-07-17 09:45:00,,0830.4,4.99,0.00,29.9,28.8,00.0,38.6,31.9,24.9,0000.0,0006.58,0012.19,0005.73
2022-07-17 09:46:00,,0830.4,5.00,0.00,29.9,28.1,00.0,38.5,31.8,24.9,0000.0,0006.63,0012.35,0005.74
2022-07-17 09:47:00,,0830.4,5.01,0.00,29.9,27.5,00.0,38.5,31.7,24.9,0000.0,0006.68,0012.48,0005.77
2022-07-17 09:48:00,,0830.3,4.99,0.00,29.8,27.4,00.0,38.5,31.5,25.0,0000.0,0006.70,0012.43,0005.78
2022-07-17 09:49:00,,0830.4,5.00,0.00,29.7,27.4,00.0,38.5,31.4,25.2,0000.0,0006.65,0011.65,0005.77
2022-07-17 09:50:00,,0830.4,5.01,0.00,29.7,27.5,00.0,38.5,31.4,25.3,0000.0,0006.60,0011.50,0005.76
2022-07-17 09:51:00,,0830.5,5.01,0.00,29.7,27.7,00.0,38.5,31.4,25.4,0000.0,0006.61,0011.52,0005.75
2022-07-17 09:52:00,,0830.5,5.00,0.00,29.6,27.8,00.0,38.5,31.4,25.4,0000.0,0006.69,0011.82,0005.74
2022-07-17 09:53:00,,0830.5,4.99,0.00,29.6,27.9,00.0,38.5,31.5,25.4,0000.0,0006.70,0011.83,0005.73
2022-07-17 09:54:00,,0830.5,5.01,0.00,29.6,28.0,00.0,38.5,31.5,25.5,0000.0,0006.68,0011.79,0005.73
2022-07-17 09:55:00,,0830.5,5.00,0.00,29.6,28.1,00.0,38.5,31.5,25.6,0000.0,0006.65,0011.71,0005.72
2022-07-17 09:56:00,,0830.6,5.00,0.00,29.7,28.2,00.0,38.5,31.5,25.6,0000.0,0006.61,0010.74,0005.71
2022-07-17 09:57:00,,0830.5,5.00,0.00,29.7,28.3,00.0,38.5,31.6,25.6,0000.0,0006.57,0010.74,0005.70
2022-07-17 09:58:00,,0830.5,5.01,0.00,29.7,28.4,00.0,38.5,31.6,25.5,0000.0,0006.53,0010.70,0005.68
2022-07-17 09:59:00,,0830.6,4.99,0.00,29.7,28.5,00.0,38.5,31.6,25.5,0000.0,0006.52,0010.87,0005.67
